Back to catalog

CZ-3C DEB

LostGTO
NORAD 40828·DEBRIS·🇨🇳 China

Launched Oct 31, 2010 from Xichang Satellite Launch Center

Loading…

TLE

StaleSource: Space-Track

Epoch: Jul 22, 2015, 06:43 UTC

1 40828U 10057AV  15203.28034756  .00000353  00000-0  12955-1 0  9995
2 40828  20.8684  50.6336 7114068 165.2662 238.2739  2.24496229  3816

Track CZ-3C DEB in real time with AllMySat

Download on the App Store